Location: Leiter
(44.7178°N, 106.2687°W)
Time: 04:06:11
(UTC+00:00)

STARS - Pass Details

Date: 06 July 2022
Orbit: 620 x 637 km, 98.2° (Epoch: 13 August)

Event Time Altitude Azimuth Distance (km) Brightness Sun altitude
Rises 04:50:41 0° 27° (NNE) 2,925 ? -15.5°
Reaches altitude 10° 04:53:23 10° 44° (NE) 2,009 ? -15.7°
Maximum altitude 04:56:40 20° 93° (E) 1,432 ? -16.1°
Enters shadow 04:57:17 20° 105° (ESE) 1,456 ? -16.1°
